Location: Kershaw
(34.5481°N, 80.5823°W)
Time: 20:29:19
(UTC+00:00)

Courier 1B Rocket - Pass Details

Date: 28 September 2022
Orbit: 920 x 1202 km, 28.3° (Epoch: 01 December)

Event Time Altitude Azimuth Distance (km) Brightness Sun altitude
Rises 04:51:16 0° 263° (W) 3,548 - -57.1°
Reaches altitude 10° 04:53:56 10° 257° (WSW) 2,604 - -57.2°
Maximum altitude 04:59:52 47° 185° (S) 1,215 - -57.3°
Drops below altitude 10° 05:05:57 10° 114° (ESE) 2,679 - -57.4°
Sets 05:08:45 0° 108° (ESE) 3,660 - -57.5°
